Time,TemperatureF,DewpointF,PressureIn,WindDirection,WindDirectionDegrees,WindSpeedMPH,WindSpeedGustMPH,Humidity,HourlyPrecipIn,Conditions,Clouds,dailyrainin,SoftwareType,DateUTC
2013-02-15 00:02:00,36.0,30.0,29.98,WNW,289,2.0,-999.0,78,-99.99,,,-99.99,,2013-02-15 06:02:00,
2013-02-15 00:11:00,35.0,29.0,29.99,WNW,289,2.0,-999.0,78,-99.99,,,-99.99,,2013-02-15 06:11:00,
2013-02-15 00:21:00,35.0,29.0,29.99,WNW,289,2.0,-999.0,78,-99.99,,,-99.99,,2013-02-15 06:21:00,
2013-02-15 00:31:00,35.0,28.0,29.99,WNW,298,4.0,-999.0,76,-99.99,,,-99.99,,2013-02-15 06:31:00,
2013-02-15 00:42:00,35.0,28.0,29.99,WNW,298,4.0,-999.0,76,-99.99,,,-99.99,,2013-02-15 06:42:00,
2013-02-15 00:51:00,35.0,28.0,29.99,West,271,3.0,-999.0,76,-99.99,,,-99.99,,2013-02-15 06:51:00,
2013-02-15 01:01:00,35.0,28.0,29.99,West,271,3.0,-999.0,76,-99.99,,,-99.99,,2013-02-15 07:01:00,
2013-02-15 01:11:00,35.0,28.0,29.99,West,271,3.0,-999.0,76,-99.99,,,-99.99,,2013-02-15 07:11:00,
2013-02-15 01:21:00,34.0,28.0,30.01,WNW,299,4.0,-999.0,78,-99.99,,,-99.99,,2013-02-15 07:21:00,
2013-02-15 01:31:00,34.0,28.0,30.01,NW,306,8.0,-999.0,77,-99.99,,,-99.99,,2013-02-15 07:31:00,
2013-02-15 01:42:00,34.0,28.0,30.01,NW,306,8.0,-999.0,77,-99.99,,,-99.99,,2013-02-15 07:42:00,
2013-02-15 01:52:00,34.0,28.0,30.02,NW,320,12.0,-999.0,78,-99.99,,,-99.99,,2013-02-15 07:52:00,
2013-02-15 02:01:00,33.0,27.0,30.02,NW,313,9.0,-999.0,79,-99.99,,,-99.99,,2013-02-15 08:01:00,
2013-02-15 02:11:00,33.0,27.0,30.02,NW,313,9.0,-999.0,79,-99.99,,,-99.99,,2013-02-15 08:11:00,
2013-02-15 02:21:00,33.0,28.0,30.02,NW,314,9.0,-999.0,80,-99.99,,,-99.99,,2013-02-15 08:21:00,
2013-02-15 02:31:00,33.0,28.0,30.02,WNW,301,7.0,-999.0,80,-99.99,,,-99.99,,2013-02-15 08:31:00,
2013-02-15 02:42:00,33.0,28.0,30.02,WNW,301,7.0,-999.0,80,-99.99,,,-99.99,,2013-02-15 08:42:00,
2013-02-15 02:52:00,33.0,28.0,30.02,NW,310,11.0,-999.0,80,-99.99,,,-99.99,,2013-02-15 08:52:00,
2013-02-15 03:01:00,33.0,28.0,30.03,NW,308,12.0,-999.0,81,-99.99,,,-99.99,,2013-02-15 09:01:00,
2013-02-15 03:12:00,33.0,28.0,30.03,NW,308,12.0,-999.0,81,-99.99,,,-99.99,,2013-02-15 09:12:00,
2013-02-15 03:21:00,32.0,27.0,30.03,NW,321,11.0,-999.0,82,-99.99,,,-99.99,,2013-02-15 09:21:00,
2013-02-15 03:32:00,32.0,27.0,30.03,NW,321,11.0,-999.0,82,-99.99,,,-99.99,,2013-02-15 09:32:00,
2013-02-15 03:42:00,32.0,27.0,30.03,NW,321,11.0,-999.0,82,-99.99,,,-99.99,,2013-02-15 09:42:00,
2013-02-15 03:52:00,32.0,27.0,30.03,NNW,333,12.0,-999.0,80,-99.99,,,-99.99,,2013-02-15 09:52:00,
2013-02-15 04:01:00,31.0,26.0,30.04,NW,322,11.0,-999.0,80,-99.99,,,-99.99,,2013-02-15 10:01:00,
2013-02-15 04:11:00,31.0,26.0,30.04,NW,322,11.0,-999.0,80,-99.99,,,-99.99,,2013-02-15 10:11:00,
2013-02-15 04:21:00,31.0,26.0,30.04,North,353,13.0,-999.0,81,-99.99,,,-99.99,,2013-02-15 10:21:00,
2013-02-15 04:31:00,30.0,25.0,30.05,NW,316,13.0,-999.0,82,-99.99,,,-99.99,,2013-02-15 10:31:00,
2013-02-15 04:41:00,30.0,25.0,30.05,NW,316,13.0,-999.0,82,-99.99,,,-99.99,,2013-02-15 10:41:00,
2013-02-15 04:51:00,30.0,25.0,30.06,NW,319,11.0,-999.0,82,-99.99,,,-99.99,,2013-02-15 10:51:00,
2013-02-15 05:01:00,30.0,25.0,30.06,North,349,12.0,-999.0,81,-99.99,,,-99.99,,2013-02-15 11:01:00,
2013-02-15 05:11:00,30.0,25.0,30.06,North,349,12.0,-999.0,81,-99.99,,,-99.99,,2013-02-15 11:11:00,
2013-02-15 05:22:00,29.0,24.0,30.07,NNW,330,10.0,-999.0,81,-99.99,,,-99.99,,2013-02-15 11:22:00,
2013-02-15 05:32:00,29.0,24.0,30.07,NNW,347,12.0,-999.0,80,-99.99,,,-99.99,,2013-02-15 11:32:00,
2013-02-15 05:42:00,29.0,24.0,30.07,NNW,347,12.0,-999.0,80,-99.99,,,-99.99,,2013-02-15 11:42:00,
2013-02-15 05:52:00,29.0,23.0,30.08,NNW,341,9.0,-999.0,79,-99.99,,,-99.99,,2013-02-15 11:52:00,
2013-02-15 06:02:00,29.0,23.0,30.08,NNW,335,9.0,-999.0,78,-99.99,,,-99.99,,2013-02-15 12:02:00,
2013-02-15 06:11:00,29.0,23.0,30.08,NNW,335,9.0,-999.0,78,-99.99,,,-99.99,,2013-02-15 12:11:00,
2013-02-15 06:21:00,29.0,22.0,30.09,NW,306,13.0,-999.0,75,-99.99,,,-99.99,,2013-02-15 12:21:00,
2013-02-15 06:32:00,29.0,22.0,30.10,NW,312,14.0,-999.0,75,-99.99,,,-99.99,,2013-02-15 12:32:00,
2013-02-15 06:42:00,29.0,22.0,30.10,NW,312,14.0,-999.0,75,-99.99,,,-99.99,,2013-02-15 12:42:00,
2013-02-15 06:52:00,28.0,21.0,30.10,NW,314,16.0,-999.0,76,-99.99,,,-99.99,,2013-02-15 12:52:00,
2013-02-15 07:02:00,27.0,20.0,30.11,NW,320,18.0,-999.0,76,-99.99,,,-99.99,,2013-02-15 13:02:00,
2013-02-15 07:11:00,26.0,19.0,30.12,NW,318,16.0,-999.0,74,-99.99,,,-99.99,,2013-02-15 13:11:00,
2013-02-15 07:21:00,26.0,19.0,30.12,NW,318,16.0,-999.0,74,-99.99,,,-99.99,,2013-02-15 13:21:00,
2013-02-15 07:32:00,26.0,18.0,30.13,NW,319,16.0,-999.0,72,-99.99,,,-99.99,,2013-02-15 13:32:00,
2013-02-15 07:41:00,26.0,18.0,30.13,NW,319,16.0,-999.0,72,-99.99,,,-99.99,,2013-02-15 13:41:00,
2013-02-15 07:52:00,25.0,17.0,30.14,NW,318,18.0,-999.0,71,-99.99,,,-99.99,,2013-02-15 13:52:00,
2013-02-15 08:01:00,25.0,16.0,30.15,NW,322,18.0,-999.0,69,-99.99,,,-99.99,,2013-02-15 14:01:00,
2013-02-15 08:11:00,25.0,16.0,30.15,NW,322,18.0,-999.0,69,-99.99,,,-99.99,,2013-02-15 14:11:00,
2013-02-15 08:21:00,25.0,16.0,30.15,NW,316,19.0,-999.0,68,-99.99,,,-99.99,,2013-02-15 14:21:00,
2013-02-15 08:32:00,25.0,16.0,30.16,NW,314,15.0,-999.0,69,-99.99,,,-99.99,,2013-02-15 14:32:00,
2013-02-15 08:41:00,25.0,16.0,30.16,NW,314,15.0,-999.0,69,-99.99,,,-99.99,,2013-02-15 14:41:00,
2013-02-15 08:52:00,25.0,16.0,30.17,NW,309,18.0,-999.0,68,-99.99,,,-99.99,,2013-02-15 14:52:00,
2013-02-15 09:01:00,25.0,16.0,30.17,NW,309,18.0,-999.0,68,-99.99,,,-99.99,,2013-02-15 15:01:00,
2013-02-15 09:11:00,25.0,16.0,30.17,NW,309,18.0,-999.0,68,-99.99,,,-99.99,,2013-02-15 15:11:00,
2013-02-15 09:21:00,26.0,17.0,30.18,NW,312,14.0,-999.0,67,-99.99,,,-99.99,,2013-02-15 15:21:00,
2013-02-15 09:32:00,26.0,17.0,30.19,NNW,331,13.0,-999.0,67,-99.99,,,-99.99,,2013-02-15 15:32:00,
2013-02-15 09:42:00,27.0,17.0,30.20,NW,325,12.0,-999.0,66,-99.99,,,-99.99,,2013-02-15 15:42:00,
2013-02-15 09:51:00,27.0,17.0,30.20,NW,325,12.0,-999.0,66,-99.99,,,-99.99,,2013-02-15 15:51:00,
2013-02-15 10:01:00,27.0,18.0,30.20,NW,314,14.0,-999.0,67,-99.99,,,-99.99,,2013-02-15 16:01:00,
2013-02-15 10:11:00,27.0,18.0,30.20,NW,314,14.0,-999.0,67,-99.99,,,-99.99,,2013-02-15 16:11:00,
2013-02-15 10:22:00,27.0,18.0,30.20,NW,314,14.0,-999.0,67,-99.99,,,-99.99,,2013-02-15 16:22:00,
2013-02-15 10:32:00,28.0,18.0,30.20,NNW,334,13.0,-999.0,65,-99.99,,,-99.99,,2013-02-15 16:32:00,
2013-02-15 10:42:00,28.0,18.0,30.20,NNW,334,13.0,-999.0,65,-99.99,,,-99.99,,2013-02-15 16:42:00,
2013-02-15 10:52:00,28.0,18.0,30.21,WNW,297,14.0,-999.0,65,-99.99,,,-99.99,,2013-02-15 16:52:00,
2013-02-15 11:01:00,28.0,17.0,30.22,WNW,291,11.0,-999.0,64,-99.99,,,-99.99,,2013-02-15 17:01:00,
2013-02-15 11:11:00,28.0,17.0,30.22,NW,316,15.0,-999.0,62,-99.99,,,-99.99,,2013-02-15 17:11:00,
2013-02-15 11:21:00,28.0,17.0,30.22,NW,316,15.0,-999.0,62,-99.99,,,-99.99,,2013-02-15 17:21:00,
2013-02-15 11:32:00,29.0,18.0,30.22,NNW,344,12.0,-999.0,62,-99.99,,,-99.99,,2013-02-15 17:32:00,
2013-02-15 11:41:00,29.0,18.0,30.22,NNW,344,12.0,-999.0,62,-99.99,,,-99.99,,2013-02-15 17:41:00,
2013-02-15 11:52:00,30.0,17.0,30.22,NNW,336,11.0,-999.0,59,-99.99,,,-99.99,,2013-02-15 17:52:00,
2013-02-15 12:01:00,31.0,17.0,30.22,NW,309,13.0,-999.0,55,-99.99,,,-99.99,,2013-02-15 18:01:00,
2013-02-15 12:11:00,31.0,17.0,30.22,NW,309,13.0,-999.0,55,-99.99,,,-99.99,,2013-02-15 18:11:00,
2013-02-15 12:21:00,31.0,16.0,30.21,North,356,12.0,-999.0,54,-99.99,,,-99.99,,2013-02-15 18:21:00,
2013-02-15 12:32:00,32.0,16.0,30.20,NNW,343,11.0,-999.0,51,-99.99,,,-99.99,,2013-02-15 18:32:00,
2013-02-15 12:41:00,32.0,16.0,30.20,NNW,343,11.0,-999.0,51,-99.99,,,-99.99,,2013-02-15 18:41:00,
2013-02-15 12:52:00,32.0,16.0,30.20,NNW,331,12.0,-999.0,52,-99.99,,,-99.99,,2013-02-15 18:52:00,
2013-02-15 13:01:00,32.0,15.0,30.20,NW,312,12.0,-999.0,50,-99.99,,,-99.99,,2013-02-15 19:01:00,
2013-02-15 13:11:00,32.0,15.0,30.20,NW,312,12.0,-999.0,50,-99.99,,,-99.99,,2013-02-15 19:11:00,
2013-02-15 13:22:00,33.0,15.0,30.20,NW,314,11.0,-999.0,48,-99.99,,,-99.99,,2013-02-15 19:22:00,
2013-02-15 13:32:00,33.0,15.0,30.20,NNW,332,11.0,-999.0,46,-99.99,,,-99.99,,2013-02-15 19:32:00,
2013-02-15 13:41:00,33.0,15.0,30.20,NNW,332,11.0,-999.0,46,-99.99,,,-99.99,,2013-02-15 19:41:00,
2013-02-15 13:51:00,33.0,15.0,30.19,NNW,335,14.0,-999.0,48,-99.99,,,-99.99,,2013-02-15 19:51:00,
2013-02-15 14:01:00,34.0,16.0,30.19,NNW,341,9.0,-999.0,47,-99.99,,,-99.99,,2013-02-15 20:01:00,
2013-02-15 14:11:00,34.0,16.0,30.19,NNW,341,9.0,-999.0,47,-99.99,,,-99.99,,2013-02-15 20:11:00,
2013-02-15 14:21:00,34.0,15.0,30.19,NW,316,9.0,-999.0,46,-99.99,,,-99.99,,2013-02-15 20:21:00,
2013-02-15 14:32:00,34.0,16.0,30.19,NW,306,10.0,-999.0,47,-99.99,,,-99.99,,2013-02-15 20:32:00,
2013-02-15 14:42:00,34.0,16.0,30.19,NW,306,10.0,-999.0,47,-99.99,,,-99.99,,2013-02-15 20:42:00,
2013-02-15 14:52:00,34.0,15.0,30.19,NNW,340,8.0,-999.0,46,-99.99,,,-99.99,,2013-02-15 20:52:00,
2013-02-15 15:02:00,34.0,15.0,30.19,NW,312,11.0,-999.0,45,-99.99,,,-99.99,,2013-02-15 21:02:00,
2013-02-15 15:11:00,34.0,15.0,30.19,NW,312,11.0,-999.0,45,-99.99,,,-99.99,,2013-02-15 21:11:00,
2013-02-15 15:21:00,34.0,15.0,30.19,NW,312,11.0,-999.0,45,-99.99,,,-99.99,,2013-02-15 21:21:00,
2013-02-15 15:31:00,34.0,14.0,30.19,NNW,337,9.0,-999.0,44,-99.99,,,-99.99,,2013-02-15 21:31:00,
2013-02-15 15:42:00,34.0,14.0,30.19,NNW,337,9.0,-999.0,44,-99.99,,,-99.99,,2013-02-15 21:42:00,
2013-02-15 15:52:00,35.0,15.0,30.19,NNW,345,10.0,-999.0,43,-99.99,,,-99.99,,2013-02-15 21:52:00,
2013-02-15 16:02:00,34.0,13.0,30.19,NNW,339,12.0,-999.0,42,-99.99,,,-99.99,,2013-02-15 22:02:00,
2013-02-15 16:11:00,34.0,14.0,30.19,NW,316,11.0,-999.0,43,-99.99,,,-99.99,,2013-02-15 22:11:00,
2013-02-15 16:21:00,34.0,14.0,30.19,NW,316,11.0,-999.0,43,-99.99,,,-99.99,,2013-02-15 22:21:00,
2013-02-15 16:31:00,34.0,14.0,30.19,North,351,12.0,-999.0,44,-99.99,,,-99.99,,2013-02-15 22:31:00,
2013-02-15 16:41:00,34.0,14.0,30.19,North,351,12.0,-999.0,44,-99.99,,,-99.99,,2013-02-15 22:41:00,
2013-02-15 16:51:00,34.0,14.0,30.19,NNW,328,9.0,-999.0,44,-99.99,,,-99.99,,2013-02-15 22:51:00,
2013-02-15 17:02:00,34.0,15.0,30.19,NNW,327,9.0,-999.0,45,-99.99,,,-99.99,,2013-02-15 23:02:00,
2013-02-15 17:11:00,34.0,15.0,30.19,NNW,327,9.0,-999.0,45,-99.99,,,-99.99,,2013-02-15 23:11:00,
2013-02-15 17:21:00,34.0,16.0,30.19,NNW,329,7.0,-999.0,47,-99.99,,,-99.99,,2013-02-15 23:21:00,
2013-02-15 17:31:00,34.0,15.0,30.19,WNW,299,7.0,-999.0,46,-99.99,,,-99.99,,2013-02-15 23:31:00,
2013-02-15 17:42:00,34.0,15.0,30.19,WNW,299,7.0,-999.0,46,-99.99,,,-99.99,,2013-02-15 23:42:00,
2013-02-15 17:52:00,33.0,16.0,30.19,NW,310,6.0,-999.0,50,-99.99,,,-99.99,,2013-02-15 23:52:00,
2013-02-15 18:02:00,33.0,17.0,30.19,NW,308,6.0,-999.0,51,-99.99,,,-99.99,,2013-02-16 00:02:00,
2013-02-15 18:11:00,33.0,17.0,30.19,NW,308,6.0,-999.0,51,-99.99,,,-99.99,,2013-02-16 00:11:00,
2013-02-15 18:21:00,32.0,16.0,30.19,NW,304,7.0,-999.0,52,-99.99,,,-99.99,,2013-02-16 00:21:00,
2013-02-15 18:32:00,31.0,17.0,30.19,NW,312,5.0,-999.0,55,-99.99,,,-99.99,,2013-02-16 00:32:00,
2013-02-15 18:41:00,31.0,17.0,30.19,NW,312,5.0,-999.0,55,-99.99,,,-99.99,,2013-02-16 00:41:00,
2013-02-15 18:51:00,31.0,17.0,30.19,NW,308,5.0,-999.0,56,-99.99,,,-99.99,,2013-02-16 00:51:00,
2013-02-15 19:02:00,31.0,17.0,30.19,NW,309,4.0,-999.0,56,-99.99,,,-99.99,,2013-02-16 01:02:00,
2013-02-15 19:11:00,31.0,17.0,30.19,NW,309,4.0,-999.0,56,-99.99,,,-99.99,,2013-02-16 01:11:00,
2013-02-15 19:21:00,31.0,18.0,30.19,NW,320,4.0,-999.0,57,-99.99,,,-99.99,,2013-02-16 01:21:00,
2013-02-15 19:32:00,30.0,17.0,30.19,NW,320,5.0,-999.0,59,-99.99,,,-99.99,,2013-02-16 01:32:00,
2013-02-15 19:41:00,30.0,17.0,30.19,NW,320,5.0,-999.0,59,-99.99,,,-99.99,,2013-02-16 01:41:00,
2013-02-15 19:51:00,30.0,17.0,30.18,NW,320,5.0,-999.0,59,-99.99,,,-99.99,,2013-02-16 01:51:00,
2013-02-15 20:01:00,29.0,17.0,30.18,NW,320,6.0,-999.0,60,-99.99,,,-99.99,,2013-02-16 02:01:00,
2013-02-15 20:11:00,29.0,17.0,30.18,NW,320,6.0,-999.0,60,-99.99,,,-99.99,,2013-02-16 02:11:00,
2013-02-15 20:21:00,29.0,17.0,30.18,NW,320,6.0,-999.0,60,-99.99,,,-99.99,,2013-02-16 02:21:00,
2013-02-15 20:31:00,30.0,15.0,30.19,NNW,336,9.0,-999.0,54,-99.99,,,-99.99,,2013-02-16 02:31:00,
2013-02-15 20:42:00,30.0,15.0,30.19,NNW,336,9.0,-999.0,54,-99.99,,,-99.99,,2013-02-16 02:42:00,
2013-02-15 20:52:00,29.0,15.0,30.19,NW,326,9.0,-999.0,55,-99.99,,,-99.99,,2013-02-16 02:52:00,
2013-02-15 21:01:00,29.0,15.0,30.19,NNW,334,9.0,-999.0,56,-99.99,,,-99.99,,2013-02-16 03:01:00,
2013-02-15 21:11:00,29.0,15.0,30.19,NNW,334,9.0,-999.0,56,-99.99,,,-99.99,,2013-02-16 03:11:00,
2013-02-15 21:21:00,28.0,15.0,30.19,NNW,331,9.0,-999.0,57,-99.99,,,-99.99,,2013-02-16 03:21:00,
2013-02-15 21:32:00,28.0,16.0,30.20,NW,323,7.0,-999.0,59,-99.99,,,-99.99,,2013-02-16 03:32:00,
2013-02-15 21:41:00,28.0,16.0,30.20,NW,323,7.0,-999.0,59,-99.99,,,-99.99,,2013-02-16 03:41:00,
2013-02-15 21:52:00,27.0,16.0,30.20,NNW,344,8.0,-999.0,62,-99.99,,,-99.99,,2013-02-16 03:52:00,
2013-02-15 22:01:00,27.0,16.0,30.21,North,349,7.0,-999.0,63,-99.99,,,-99.99,,2013-02-16 04:01:00,
2013-02-15 22:11:00,26.0,15.0,30.21,NNW,336,11.0,-999.0,63,-99.99,,,-99.99,,2013-02-16 04:11:00,
2013-02-15 22:21:00,26.0,15.0,30.21,NNW,336,11.0,-999.0,63,-99.99,,,-99.99,,2013-02-16 04:21:00,
2013-02-15 22:32:00,26.0,16.0,30.20,WNW,301,10.0,-999.0,65,-99.99,,,-99.99,,2013-02-16 04:32:00,
2013-02-15 22:41:00,26.0,16.0,30.20,WNW,301,10.0,-999.0,65,-99.99,,,-99.99,,2013-02-16 04:41:00,
2013-02-15 22:51:00,25.0,15.0,30.20,NW,326,11.0,-999.0,64,-99.99,,,-99.99,,2013-02-16 04:51:00,
2013-02-15 23:01:00,25.0,15.0,30.20,NNW,341,13.0,-999.0,64,-99.99,,,-99.99,,2013-02-16 05:01:00,
2013-02-15 23:12:00,25.0,15.0,30.20,NNW,341,13.0,-999.0,64,-99.99,,,-99.99,,2013-02-16 05:12:00,
2013-02-15 23:22:00,25.0,15.0,30.20,NW,318,9.0,-999.0,65,-99.99,,,-99.99,,2013-02-16 05:22:00,
2013-02-15 23:32:00,24.0,14.0,30.19,NNW,339,7.0,-999.0,65,-99.99,,,-99.99,,2013-02-16 05:32:00,
2013-02-15 23:42:00,24.0,14.0,30.19,NNW,339,7.0,-999.0,65,-99.99,,,-99.99,,2013-02-16 05:42:00,
2013-02-15 23:52:00,24.0,14.0,30.19,NNW,343,9.0,-999.0,65,-99.99,,,-99.99,,2013-02-16 05:52:00,